Tracking 20093 objects as of 16-Dec-2019
HD Live streaming from Space Station
objects crossing your sky now

DELTA 1 DEB

Track DELTA 1 DEB now!
10-day predictions


NORAD ID: 37671
Int'l Code: 1978-026KJ
Perigee: 797.8 km
Apogee: 839.6 km
Inclination: 98.8 °
Period: 101.1 minutes
Semi major axis: 7189 km
RCS: 0.0135 m2 (small)
Launch date: March 5, 1978
Source: United States (US)
Launch site: AIR FORCE WESTERN TEST RANGE (AFWTR)

Note: This is SATELLITE DEBRIS
aabbcc
Your satellite tracking list
Your tracking list is empty




NASA's NSSDC Master Catalog

Two Line Element Set (TLE):
1 37671U 78026KJ  19347.69509810  .00000135  00000-0  77852-4 0  9991
2 37671  98.7908 326.0688 0029019 201.4895 158.5067 14.24086078885991
Source of the keplerian elements: AFSPC